FALCON 9 DEB (46087 NORAD) Tracking and Keplerian Element Data

This shows tracking and keplerian element data for the satellite.

Feedback or suggestion? Click here.




ElementValue
Catalog46087
NameFALCON 9 DEB
Epoch Orbit2275
Epoch Day336.60564299
Epoch Year2020
RAAN84.3898
Inclination53.0088
Eccentricity0.0011643
Argument of Perigee296.9209
Mean Anonmoly63.0612
Mean Motion15.60620211
Decay Rate0.00019263
L11 46087U 20055BN 20336.60564299 .00019263 00000-0 23349-3 0 9997
L22 46087 53.0088 84.3898 0011643 296.9209 63.0612 15.60620211 22751

Live tracking and technical data element details for FALCON 9 DEB (NORAD 46087). FALCON 9 DEB can be tracked NOW for your location showing map with azimuth and elevation plus other details from your city location.

Track the satellite on the map from your city or location and see movement details for azimuth, elevation, latitude, longitude, range, height, and movement on the map or in text.







IsCatalogInMostPopularTable: catalog: 46087, numindb: 22
Update: records affected: 1



GetName: 46087 FALCON 9 DEB

Hit Count: updated at: Thu, 03 Dec 2020 07:35:37 GMT